date:2025-05-12T00:29:47+00:00
validtle:1
satid:63474
launchyear:2025
epoch:25131.58335648
epochday:131
tleage:1
tleclassification:U
active:1
name:STARLINK-33735
meananomly:85.6197
meanmotion:15.3706
rightascension:0.0000
declination:0.0000
semimajoraxis:6832.9385832983
altitudeatperigee:454
altitudeatapogee:456
inclination:42.9992
eccentricity:0.0001586
argumentofperigree:270.7503
nickname:STARLINK-33735
idesg:25070Q  
cosparid:2025-070Q
altkm:454.85739769349
velkms:7.6413131985515
velkmh:27509
onumepoch:676
onumnow:10397.27
otype:1
otypedesc:Low Earth Orbit (LEO)
status:1
timestamp:2025-05-11T14:00:02+00:00
nowjuliandate:2460807.5206864
nowepochdate:25132.0206828704
TLE:
STARLINK-33735
1 63474U 25070Q   25131.58335648 -.01775708  00000+0 -53106-1 0  9994
2 63474  42.9992 165.9093 0001586 270.7503  85.6197 15.37063043  6765